When you browse on this site, cookies collect data to enhance your experience and personalize the content and advertising you see.
Visit our Privacy Policy to learn more. By continuing to use the site, you agree to this use of cookies and data.
  • In Portugal
  • List of Countries
  • For 7 days
  • Water Temperature
  • Satellite Maps
  • Weather Map
  • Weather Widgets
  • user-avatar
    Login

    Hourly Weather Kofu

    Today, 16 January, Wednesday

    Time Temperature Precipitation Wind Pressure Humidity
    00:00 -1°C° 0 mm 2 mps 666 mmHg 83%
    01:00 -1°C° 0 mm 2 mps 666 mmHg 81%
    02:00 -2°C° 0 mm 2 mps 666 mmHg 79%
    03:00 -2°C° 0 mm 2 mps 665 mmHg 78%
    04:00 -2°C° 0 mm 2 mps 665 mmHg 77%
    05:00 -2°C° 0 mm 2 mps 665 mmHg 75%
    06:00 -3°C° 0 mm 2 mps 666 mmHg 74%
    07:00 -1°C° 0 mm 2 mps 666 mmHg 67%
    08:00 +2°C° 0 mm 2 mps 667 mmHg 60%
    09:00 +3°C° 0 mm 2 mps 668 mmHg 45%
    10:00 +4°C° 0 mm 2 mps 668 mmHg 40%
    11:00 +5°C° 0 mm 2 mps 669 mmHg 35%
    12:00 +7°C° 0 mm 2 mps 669 mmHg 30%
    13:00 +6°C° 0 mm 2 mps 669 mmHg 32%
    14:00 +6°C° 0 mm 2 mps 669 mmHg 35%
    15:00 +5°C° 0 mm 2 mps 668 mmHg 35%
    16:00 +3°C° 0 mm 2 mps 668 mmHg 44%
    17:00 +2°C° 0 mm 1 mps 668 mmHg 53%
    18:00 0°C° 0 mm 1 mps 667 mmHg 63%
    19:00 -1°C° 0 mm 1 mps 667 mmHg 64%
    20:00 -1°C° 0 mm 1 mps 668 mmHg 66%
    21:00 -2°C° 0 mm 1 mps 668 mmHg 67%
    22:00 -2°C° 0 mm 1 mps 668 mmHg 66%
    23:00 -2°C° 0 mm 1 mps 668 mmHg 65%

    Tomorrow, 17 January, Thursday

    Time Temperature Precipitation Wind Pressure Humidity
    00:00 -2°C° 0 mm 1 mps 668 mmHg 64%
    01:00 -2°C° 0 mm 1 mps 668 mmHg 63%
    02:00 -2°C° 0 mm 1 mps 667 mmHg 61%
    03:00 -3°C° 0 mm 1 mps 667 mmHg 60%
    04:00 -3°C° 0 mm 1 mps 667 mmHg 59%
    05:00 -3°C° 0 mm 1 mps 667 mmHg 59%
    06:00 -3°C° 0 mm 1 mps 667 mmHg 58%
    07:00 -1°C° 0 mm 1 mps 668 mmHg 52%
    08:00 -1°C° 0 mm 2 mps 668 mmHg 47%
    09:00 +2°C° 0 mm 2 mps 668 mmHg 41%
    10:00 +3°C° 0 mm 2 mps 668 mmHg 38%
    11:00 +4°C° 0 mm 2 mps 668 mmHg 35%
    12:00 +5°C° 0 mm 2 mps 668 mmHg 32%
    13:00 +4°C° 0 mm 3 mps 667 mmHg 34%
    14:00 +3°C° 0 mm 3 mps 667 mmHg 35%
    15:00 +3°C° 0 mm 3 mps 666 mmHg 37%
    16:00 +1°C° 0 mm 3 mps 666 mmHg 46%
    17:00 -1°C° 0 mm 2 mps 666 mmHg 55%
    18:00 -3°C° 0 mm 2 mps 666 mmHg 64%
    19:00 -3°C° 0 mm 2 mps 666 mmHg 65%
    20:00 -3°C° 0 mm 2 mps 666 mmHg 66%
    21:00 -3°C° 0 mm 2 mps 666 mmHg 66%
    22:00 -4°C° 0 mm 2 mps 666 mmHg 67%
    23:00 -4°C° 0 mm 2 mps 666 mmHg 67%

    Day after tomorrow, 18 January, Friday

    Time Temperature Precipitation Wind Pressure Humidity
    00:00 -4°C° 0 mm 2 mps 666 mmHg 67%
    01:00 -4°C° 0 mm 2 mps 667 mmHg 65%
    02:00 -4°C° 0 mm 2 mps 667 mmHg 64%
    03:00 -5°C° 0 mm 2 mps 667 mmHg 62%
    04:00 -5°C° 0 mm 2 mps 668 mmHg 57%
    05:00 -5°C° 0 mm 2 mps 668 mmHg 52%
    06:00 -5°C° 0 mm 2 mps 668 mmHg 47%
    07:00 -4°C° 0 mm 2 mps 669 mmHg 39%
    08:00 -2°C° 0 mm 2 mps 670 mmHg 30%
    09:00 -1°C° 0 mm 2 mps 671 mmHg 22%
    10:00 +1°C° 0 mm 2 mps 671 mmHg 20%
    11:00 +3°C° 0 mm 2 mps 671 mmHg 19%
    12:00 +4°C° 0 mm 2 mps 672 mmHg 17%
    13:00 +4°C° 0 mm 2 mps 672 mmHg 19%
    14:00 +4°C° 0 mm 2 mps 671 mmHg 20%
    15:00 +4°C° 0 mm 2 mps 671 mmHg 22%
    16:00 +2°C° 0 mm 2 mps 671 mmHg 29%
    17:00 -2°C° 0 mm 2 mps 671 mmHg 37%
    18:00 -2°C° 0 mm 1 mps 671 mmHg 44%
    19:00 -2°C° 0 mm 1 mps 671 mmHg 45%
    20:00 -2°C° 0 mm 1 mps 671 mmHg 46%
    21:00 -3°C° 0 mm 1 mps 671 mmHg 46%
    22:00 -3°C° 0 mm 1 mps 671 mmHg 47%
    23:00 -3°C° 0 mm 1 mps 671 mmHg 47%

    19 January, Saturday

    Time Temperature Precipitation Wind Pressure Humidity
    00:00 -3°C° 0 mm 1 mps 671 mmHg 48%
    01:00 -3°C° 0 mm 1 mps 671 mmHg 49%
    02:00 -3°C° 0 mm 1 mps 671 mmHg 50%
    03:00 -3°C° 0 mm 1 mps 671 mmHg 52%
    04:00 -3°C° 0 mm 1 mps 671 mmHg 54%
    05:00 -3°C° 0 mm 1 mps 671 mmHg 56%
    06:00 -3°C° 0 mm 1 mps 671 mmHg 58%
    07:00 -1°C° 0 mm 1 mps 671 mmHg 55%
    08:00 +1°C° 0 mm 1 mps 672 mmHg 51%
    09:00 +1°C° 0 mm 2 mps 672 mmHg 47%
    10:00 +3°C° 0 mm 2 mps 672 mmHg 43%
    11:00 +4°C° 0 mm 2 mps 672 mmHg 39%
    12:00 +6°C° 0 mm 2 mps 672 mmHg 35%
    13:00 +5°C° 0 mm 2 mps 671 mmHg 36%
    14:00 +5°C° 0 mm 2 mps 671 mmHg 37%
    15:00 +5°C° 0 mm 2 mps 670 mmHg 37%
    16:00 +3°C° 0 mm 2 mps 670 mmHg 46%
    17:00 +1°C° 0 mm 2 mps 670 mmHg 54%
    18:00 0°C° 0 mm 1 mps 669 mmHg 63%
    19:00 0°C° 0 mm 1 mps 669 mmHg 64%
    20:00 0°C° 0 mm 1 mps 669 mmHg 66%
    21:00 -1°C° 0 mm 1 mps 669 mmHg 67%
    22:00 -1°C° 0 mm 1 mps 669 mmHg 68%
    23:00 -1°C° 0 mm 1 mps 668 mmHg 68%

    20 January, Sunday

    Time Temperature Precipitation Wind Pressure Humidity
    00:00 -1°C° 0 mm 1 mps 668 mmHg 69%
    01:00 -1°C° 0 mm 1 mps 668 mmHg 70%
    02:00 -3°C° 0 mm 2 mps 667 mmHg 71%
    03:00 -2°C° 0 mm 2 mps 667 mmHg 72%
    04:00 -2°C° 0.1 mm 2 mps 666 mmHg 72%
    05:00 -2°C° 0.1 mm 2 mps 666 mmHg 73%
    06:00 -2°C° 0.1 mm 2 mps 666 mmHg 73%
    07:00 -1°C° 0.1 mm 2 mps 666 mmHg 71%
    08:00 0°C° 0.1 mm 3 mps 665 mmHg 68%
    09:00 +1°C° 0.1 mm 3 mps 665 mmHg 65%
    10:00 0°C° 0.2 mm 4 mps 665 mmHg 64%
    11:00 0°C° 0.2 mm 4 mps 664 mmHg 63%
    12:00 0°C° 0.2 mm 5 mps 663 mmHg 61%
    13:00 -1°C° 0.3 mm 5 mps 663 mmHg 63%
    14:00 -1°C° 0.3 mm 5 mps 663 mmHg 64%
    15:00 -2°C° 0.3 mm 5 mps 663 mmHg 65%
    16:00 -3°C° 0.1 mm 4 mps 663 mmHg 66%
    17:00 -4°C° 0.1 mm 3 mps 664 mmHg 67%
    18:00 -4°C° 0.1 mm 2 mps 664 mmHg 67%
    19:00 -5°C° 0 mm 2 mps 665 mmHg 68%
    20:00 -6°C° 0 mm 2 mps 665 mmHg 68%
    21:00 -7°C° 0 mm 2 mps 665 mmHg 68%
    22:00 -7°C° 0 mm 2 mps 665 mmHg 66%
    23:00 -7°C° 0 mm 2 mps 665 mmHg 64%

    21 January, Monday

    Time Temperature Precipitation Wind Pressure Humidity
    00:00 -7°C° 0 mm 2 mps 666 mmHg 61%
    01:00 -7°C° 0 mm 2 mps 666 mmHg 60%
    02:00 -8°C° 0 mm 2 mps 666 mmHg 59%
    03:00 -8°C° 0 mm 2 mps 666 mmHg 57%
    04:00 -8°C° 0 mm 2 mps 666 mmHg 57%
    05:00 -8°C° 0 mm 2 mps 666 mmHg 56%
    06:00 -8°C° 0 mm 2 mps 667 mmHg 55%
    07:00 -6°C° 0 mm 2 mps 667 mmHg 49%
    08:00 -2°C° 0 mm 1 mps 668 mmHg 43%
    09:00 0°C° 0 mm 1 mps 669 mmHg 37%
    10:00 +2°C° 0 mm 1 mps 669 mmHg 35%
    11:00 +2°C° 0 mm 2 mps 669 mmHg 34%
    12:00 +3°C° 0 mm 2 mps 669 mmHg 32%
    13:00 +3°C° 0 mm 2 mps 669 mmHg 34%
    14:00 +3°C° 0 mm 2 mps 668 mmHg 36%
    15:00 +3°C° 0 mm 2 mps 668 mmHg 38%
    16:00 +1°C° 0 mm 2 mps 667 mmHg 47%
    17:00 0°C° 0 mm 1 mps 667 mmHg 56%
    18:00 -3°C° 0 mm 1 mps 666 mmHg 65%
    19:00 -3°C° 0 mm 1 mps 666 mmHg 66%
    20:00 -3°C° 0 mm 1 mps 666 mmHg 66%
    21:00 -3°C° 0 mm 1 mps 666 mmHg 67%
    22:00 -3°C° 0 mm 1 mps 666 mmHg 67%
    23:00 -3°C° 0 mm 1 mps 666 mmHg 67%
    Show more